User: anonymous   Login
Location: Unspecified
(0.0000°N, 0.0000°E)
Time: 14:44:44
(UTC+00:00)
Language:

DEIMOS 1 - Orbit

View from above orbital plane
View from above orbital plane
View from above satellite
View from above satellite

Ground track
Ground track

The orbit data is extracted from the following two-line orbital elements,

1 35681U 09041A   18289.39195013  .00000013  00000-0  97202-5 0  9995
2 35681  97.8910 173.9882 0001299 149.0445 211.0821 14.71752793494654
Epoch (UTC): 16 October 2018 09:24:24
Eccentricity: 0.0001299
inclination: 97.8910°
perigee height: 654 km
apogee height: 656 km
right ascension of ascending node: 173.9882°
argument of perigee: 149.0445°
revolutions per day: 14.71752793
mean anomaly at epoch: 211.0821°
orbit number at epoch: 49465

The dashed part of the orbit path shows where the satellite is in the earth's shadow,  

DLR